Location: Chippewa Lake
(41.0698°N, 81.9010°W)
Time: 01:05:05
(UTC+00:00)

Cosmos 2228 - Pass Details

Date: 09 May 2021
Orbit: 589 x 617 km, 82.5° (Epoch: 24 June)

Event Time Altitude Azimuth Distance (km) Brightness Sun altitude
Rises 08:42:13 0° 360° (N) 2,837 7.1 -15.6°
Reaches altitude 10° 08:44:33 10° 9° (N) 1,934 6.3 -15.3°
Maximum altitude 08:48:32 38° 77° (ENE) 922 4.5 -14.7°
Drops below altitude 10° 08:52:31 10° 146° (SSE) 1,934 5.5 -14.2°
Sets 08:54:51 0° 155° (SSE) 2,836 6.3 -13.8°
